Regional Weather Roundup
Issued by NWS

Home | Current Version | Previous Version | Graphics & Text | Print | Product List | Glossary On
Versions: 1 2 3 4 5 6 7 8 9 10 11 12 13 14 15 16 17 18 19 20 21 22 23 24 25 26 27 28 29 30 31 32 33 34 35 36 37 38 39 40 41 42 43 44 45 46 47 48 49 50
000
ASUS43 KOAX 300010
RWRNE

WEATHER ROUNDUP FOR NEBRASKA
NATIONAL WEATHER SERVICE OMAHA NE
700 PM CDT TUE JUL 29 2014

NOTES: SATELLITE DATA IS BEING USED TO AUGMENT CLOUD COVER ABOVE
       12000 FEET.
       "FAIR" INDICATES FEW OR NO CLOUDS BELOW 12,000 FEET WITH NO
       SIGNIFICANT WEATHER AND/OR OBSTRUCTIONS TO VISIBILITY.

  * THESE STATIONS DO NOT REPORT WEATHER SUCH AS RAIN...SNOW OR FOG.

NEZ001>004-019>022-054>056-300100-
NEBRASKA PANHANDLE

CITY           SKY/WX    TMP DP  RH WIND       PRES   REMARKS
SCOTTSBLUFF    CLOUDY    72  60  66 E12       30.19R
6HR MIN TEMP:  72; 6HR MAX TEMP:  85;

ALLIANCE       CLOUDY    73  58  59 SE12      30.19S
6HR MIN TEMP:  73; 6HR MAX TEMP:  83;

CHADRON        CLOUDY    75  53  46 NE12      30.19S
6HR MIN TEMP:  70; 6HR MAX TEMP:  78;

KIMBALL        CLOUDY    76  55  47 E12       30.18R
SIDNEY         CLOUDY    78  58  49 E15G22    30.18R
6HR MIN TEMP:  78; 6HR MAX TEMP:  85;

$$

NEZ057>060-069>072-079>082-300100-
SOUTHWEST NEBRASKA

CITY           SKY/WX    TMP DP  RH WIND       PRES   REMARKS
NORTH PLATTE   CLOUDY    76  59  55 SE9       30.14R
6HR MIN TEMP:  74; 6HR MAX TEMP:  83;

IMPERIAL       PTSUNNY   80  59  48 E16       30.11R
6HR MIN TEMP:  75; 6HR MAX TEMP:  86;

LEXINGTON      PTSUNNY   78  61  55 E8        30.13F
MCCOOK         PTSUNNY   82  59  45 E15       30.10R
6HR MIN TEMP:  81; 6HR MAX TEMP:  87;

OGALLALA       CLOUDY    77  59  53 E16       30.15R
$$

NEZ005>010-023>029-035>040-094-300100-
NORTH CENTRAL NEBRASKA

CITY           SKY/WX    TMP DP  RH WIND       PRES   REMARKS
VALENTINE      CLOUDY    77  50  38 NE7       30.17F
6HR MIN TEMP:  74; 6HR MAX TEMP:  78;

AINSWORTH      CLOUDY    73  55  53 CALM      30.17F
BROKEN BOW     PTSUNNY   78  60  53 E7        30.14F
6HR MIN TEMP:  74; 6HR MAX TEMP:  81;

O`NEILL        CLOUDY    77  51  40 CALM      30.14F
ORD            CLOUDY    75  58  55 E6        30.13F
6HR MIN TEMP:  74; 6HR MAX TEMP:  81;

THEDFORD       MOSUNNY   76  58  51 E7        30.17S
$$

NEZ041-046>049-061>064-073>077-083>087-300100-
SOUTH CENTRAL NEBRASKA

CITY           SKY/WX    TMP DP  RH WIND       PRES   REMARKS
GRAND ISLAND   MOSUNNY   76  57  51 SE3       30.14F
6HR MIN TEMP:  74; 6HR MAX TEMP:  79;

AURORA         PTSUNNY   74  58  56 E7        30.13F
HASTINGS       MOSUNNY   77  56  48 NE8       30.14F
6HR MIN TEMP:  73; 6HR MAX TEMP:  80;

HEBRON         PTSUNNY   79  55  42 NE7       30.12F
HOLDREGE       MOSUNNY   76  59  55 E10       30.13S
KEARNEY *      SUNNY     75  57  53 NE9       30.15S
YORK           PTSUNNY   73  57  56 N7        30.14F
$$

NEZ011>018-030>034-042>045-300100-
NORTHEAST NEBRASKA

CITY           SKY/WX    TMP DP  RH WIND       PRES   REMARKS
NORFOLK        MOSUNNY   76  54  46 NE7       30.13F
6HR MIN TEMP:  75; 6HR MAX TEMP:  80;

ALBION         CLOUDY    73  57  57 CALM      30.14F
BLAIR          MOSUNNY   73  54  51 N6        30.13F
COLUMBUS *     CLOUDY    57  57 100 E5        30.13F
FREMONT        PTSUNNY   77  53  43 NW5       30.13F
TEKAMAH        MOSUNNY   77  53  43 N7        30.11F
6HR MIN TEMP:  75; 6HR MAX TEMP:  80;

WAYNE          MOSUNNY   73  58  59 N3        30.14F
$$

NEZ050>053-065>068-078-088>093-300100-
SOUTHEAST NEBRASKA

CITY           SKY/WX    TMP DP  RH WIND       PRES   REMARKS
LINCOLN        PTSUNNY   78  53  41 NE10      30.12F
6HR MIN TEMP:  78; 6HR MAX TEMP:  84;

OMAHA EPPLEY   PTSUNNY   77  54  44 NE7       30.12F
6HR MIN TEMP:  76; 6HR MAX TEMP:  81;

BEATRICE       CLOUDY    76  56  49 NE6       30.12S
FALLS CITY     MOSUNNY   77  57  50 N6        30.10F
6HR MIN TEMP:  77; 6HR MAX TEMP:  83;

NEBRASKA CITY  MOSUNNY   74  55  51 NE7       30.11F
PLATTSMOUTH    MOSUNNY   76  53  43 NE7       30.12F
$$

NEZ044-045-051>053-067-300100-
OMAHA AREA

CITY           SKY/WX    TMP DP  RH WIND       PRES   REMARKS
OMAHA EPPLEY   PTSUNNY   77  54  44 NE7       30.12F
6HR MIN TEMP:  76; 6HR MAX TEMP:  81;

BLAIR          MOSUNNY   73  54  51 N6        30.13F
FREMONT        PTSUNNY   77  53  43 NW5       30.13F
MILLARD        PTSUNNY   76  55  47 N6        30.11F
OFFUTT AFB     MOSUNNY   76  56  49 NE5       30.11F
PLATTSMOUTH    MOSUNNY   76  53  43 NE7       30.12F
WAHOO          FAIR      75  56  51 N5        30.12F
$$



USA.gov is the U.S. government's official web portal to all federal, state and local government web resources and services.